Location: Ferchesar
(52.6477°N, 12.4298°E)
Time: 04:33:47
(UTC+01:00)

Explorer 7 - Pass Details

Date: 12 December 2021
Orbit: 483 x 674 km, 50.3° (Epoch: 21 January)

Event Time Altitude Azimuth Distance (km) Brightness Sun altitude
Rises 05:05:23 0° 257° (WSW) 2,882 - -26.9°
Reaches altitude 10° 05:07:46 10° 254° (WSW) 1,945 - -26.6°
Maximum altitude 05:12:09 63° 174° (S) 647 - -25.9°
Exits shadow 05:12:44 55° 134° (SE) 688 7.4 -25.8°
Drops below altitude 10° 05:16:16 10° 94° (E) 1,825 10.5 -25.3°
Sets 05:18:27 0° 91° (E) 2,687 11.7 -25.0°
